Temp
25 24 26 29 27 28 31 32 35 34 34 36 35 33 31 26 28 26 26 27 26 24 22 21 21 20 20 22 21 21 20 20 20 21 21 21 21 21 21 21 21 21 21 21 21 21 21 21 22
25 27 30 25 26 30 28 34 31 33 35 35 27 30 32 30 31 29 28 27 26 25 23 22 21 21 21 21 21 20 21 21 21 21 21 21 21 21 21 21 21 21 21 21 21 21 21 21 22
25 29 28 22 25 28 32 33 33 34 32 34 27 30 32 30 32 30 26 24 23 25 23 21 21 21 21 21 21 21 21 21 21 21 21 21 21 21 21 21 21 21 21 21 21 21 21 21 23
28 30 30 23 27 33 34 34 35 34 33 34 33 31 32 31 31 29 26 22 25 23 23 21 21 21 21 21 21 21 21 21 21 21 21 21 21 21 21 21 21 21 21 21 21 21 21 21 23
29 29 24 26 29 34 36 36 35 31 29 30 33 31 31 31 31 29 28 26 25 25 23 22 21 21 21 21 21 21 21 21 21 21 21 21 21 21 21 21 21 21 21 21 21 21 21 22 23
31 24 25 25 32 34 35 35 31 30 34 32 32 30 30 31 31 31 28 28 27 26 23 22 21 21 21 21 21 21 21 21 21 21 21 21 21 22 21 21 21 22 21 21 21 21 21 23 24
27 24 23 24 32 32 33 33 27 32 28 33 32 29 30 31 31 30 28 27 28 27 24 23 22 21 21 21 21 21 21 21 21 21 21 21 21 21 21 21 21 22 21 21 21 22 23 23 25
28 24 25 24 28 28 32 28 33 30 29 34 33 30 29 31 31 31 28 28 28 28 26 24 23 22 22 21 21 21 21 21 21 21 22 23 22 22 23 22 22 21 22 22 23 22 23 25 25
22 26 23 22 26 27 30 31 34 32 35 33 31 31 32 31 31 31 30 30 28 26 25 25 24 23 22 21 21 21 21 23 23 23 23 23 24 23 22 23 23 23 24 24 23 23 24 25 25
24 21 27 28 26 26 26 23 26 33 33 32 32 32 32 31 31 31 30 29 29 26 24 23 22 23 23 23 22 22 22 23 23 24 24 24 25 24 23 24 24 24 24 25 24 24 25 25 25
30 25 27 29 28 25 22 25 31 31 31 33 31 32 32 31 30 31 28 29 29 27 23 24 24 25 25 23 23 23 23 23 24 25 25 25 26 25 25 25 25 25 25 25 26 25 25 26 26
29 33 32 28 29 30 27 25 30 30 27 28 33 33 32 31 30 30 31 28 28 27 26 23 25 25 25 24 24 24 24 24 24 25 25 25 25 25 26 25 26 26 27 26 27 27 27 27 28
34 33 32 31 31 28 25 25 30 30 32 33 33 32 32 30 25 27 30 29 28 26 27 24 24 24 24 25 25 24 25 25 25 25 25 26 26 26 27 27 27 27 28 27 28 27 28 28 28
28 28 32 31 30 30 27 27 30 30 31 33 33 32 32 31 31 31 28 28 28 26 25 24 23 23 24 23 25 25 24 26 26 26 25 25 25 26 27 26 27 28 27 27 27 28 28 28 28
28 29 31 31 30 29 28 25 25 27 27 29 33 32 32 29 27 30 28 28 27 26 24 25 24 23 23 22 22 25 26 27 27 26 26 25 25 26 26 26 27 27 28 28 28 28 29 29 29
35 34 30 31 30 29 29 26 22 24 25 28 31 29 28 30 30 29 29 28 28 27 25 26 26 24 24 25 24 25 27 27 26 25 25 25 25 26 27 27 27 27 28 28 28 28 29 30 29
35 32 28 25 28 30 29 27 24 24 25 27 28 28 26 26 30 26 28 29 29 27 27 26 25 24 24 25 25 26 27 27 27 26 26 26 25 25 25 25 27 28 27 28 29 29 30 30 30
29 32 32 24 30 30 29 28 26 25 25 26 28 27 25 23 31 29 29 29 28 27 26 26 25 25 25 25 25 26 26 27 27 27 26 26 25 26 25 25 27 26 26 26 29 29 29 30 30
32 33 31 29 30 31 30 29 28 27 24 26 26 29 27 28 31 30 28 30 28 26 26 25 25 25 25 25 25 26 26 26 27 26 25 25 26 25 24 25 26 24 24 25 28 28 29 29 30
34 33 33 32 33 32 32 29 29 27 26 28 27 25 27 27 27 31 30 30 28 26 25 24 24 24 25 25 26 26 26 27 27 26 26 25 25 25 26 26 25 23 21 22 27 27 28 29 30
35 34 32 31 32 33 32 31 28 28 28 28 28 25 25 26 24 25 30 29 28 26 25 24 24 24 24 25 26 26 27 27 26 26 26 25 25 25 25 25 25 23 23 24 26 27 26 26 28
34 35 33 32 32 32 33 30 30 29 27 28 27 26 27 28 23 24 28 30 28 26 24 24 23 24 24 25 26 26 26 26 26 26 26 26 25 25 26 25 25 24 22 24 25 26 25 29 26
35 34 34 33 32 34 34 33 32 29 27 27 28 27 28 29 23 25 24 31 30 26 26 24 24 24 24 25 26 26 26 27 27 27 26 26 25 26 26 26 25 25 25 26 24 26 26 26 25
36 34 34 32 33 32 35 35 29 26 26 29 28 28 28 30 30 27 25 26 30 30 27 25 24 24 24 24 25 26 26 26 26 27 26 26 25 26 26 26 25 25 25 25 26 26 26 26 27
35 34 32 32 32 32 32 33 29 31 28 31 30 28 29 30 32 25 25 26 30 30 29 26 24 23 24 24 24 25 25 26 25 26 26 27 26 26 26 26 25 25 25 26 26 25 26 26 26
34 34 33 30 28 25 29 28 31 33 32 33 32 29 30 32 31 27 29 30 31 29 29 28 25 24 24 24 24 24 25 25 25 26 27 27 26 26 27 26 25 25 25 25 25 25 25 26 26
34 33 35 33 33 29 28 28 28 32 34 35 32 30 31 31 32 30 30 28 29 28 29 28 25 25 24 24 24 24 24 25 26 26 26 26 26 26 25 25 25 26 26 26 25 25 26 26 26
34 35 33 34 31 29 26 24 24 23 21 34 32 27 30 32 30 32 30 28 31 29 30 28 26 26 25 26 24 24 24 25 25 25 25 26 26 26 26 26 25 26 26 26 25 25 26 26 26
34 33 30 31 29 30 27 22 20 20 22 30 34 31 33 32 31 32 29 27 26 29 29 29 27 26 26 26 25 25 24 24 25 24 24 26 25 25 25 25 25 25 25 25 25 25 25 25 25
32 31 29 29 22 25 28 22 21 20 21 33 33 33 30 33 34 32 30 26 28 28 29 29 28 27 27 27 26 26 26 25 25 25 25 25 25 25 25 24 24 24 25 25 25 24 25 25 25
Height
762 759 753 756 775 768 768 761 732 744 747 734 738 746 757 770 777 801 787 794 799 807 811 813 814 816 818 820 823 825 827 828 830 830 831 832 832 833 834 834 834 836 836 836 837 838 838 840 840
762 758 753 752 785 773 787 743 762 748 739 738 761 760 762 772 764 775 787 794 801 808 815 816 817 817 819 822 824 827 829 831 832 832 833 834 834 834 836 837 838 839 838 839 840 840 842 842 842
760 759 763 791 778 780 765 752 748 745 747 744 772 763 762 772 768 776 789 794 800 808 814 819 819 820 821 823 826 829 830 832 834 835 836 836 837 837 838 839 840 840 840 842 842 842 844 843 843
759 759 768 800 783 750 744 740 738 744 747 745 753 769 763 769 773 781 789 796 793 811 815 819 820 821 822 824 827 830 832 834 836 837 838 839 839 838 840 841 843 843 843 844 844 844 846 846 845
758 760 787 787 775 740 731 732 738 760 760 762 756 773 773 771 778 784 792 797 801 811 816 822 821 822 823 825 828 831 833 836 837 839 840 840 841 842 843 843 845 846 847 846 847 847 848 847 847
760 777 795 797 759 742 733 735 750 761 747 758 764 774 778 777 780 783 792 796 804 812 819 823 824 825 825 827 829 832 835 837 839 840 841 841 843 844 845 846 848 848 849 848 848 848 849 848 849
770 785 808 804 765 756 750 742 770 754 764 755 759 783 779 778 782 787 791 798 802 810 817 825 828 827 828 828 831 833 835 837 839 840 841 842 845 846 848 849 849 850 850 850 849 849 849 850 850
752 780 801 793 783 784 754 758 750 757 773 752 760 783 788 780 782 786 791 800 804 808 813 820 826 832 833 833 833 833 834 836 839 841 842 843 846 848 850 850 851 851 851 851 851 851 851 851 852
758 786 812 811 791 781 760 759 748 750 749 752 761 769 775 780 784 789 793 799 805 813 811 818 822 829 835 836 836 835 835 837 839 841 844 845 846 849 851 852 852 852 852 852 853 853 853 853 853
770 808 792 775 779 782 780 781 773 754 756 761 764 768 775 781 785 789 795 800 806 810 813 816 817 829 837 839 839 838 837 838 839 841 844 846 848 850 852 852 853 853 853 853 853 853 854 855 855
755 773 775 766 770 775 792 786 761 765 771 759 771 772 777 782 787 789 796 799 807 812 814 815 817 829 835 839 840 840 840 840 841 842 845 847 848 849 850 851 852 853 853 852 853 853 854 852 853
762 748 754 767 767 767 777 775 772 772 778 766 761 771 778 783 787 789 792 800 807 813 817 817 820 829 835 837 840 840 841 841 841 843 844 847 848 849 850 851 850 852 852 853 853 854 854 853 852
743 748 748 755 759 770 779 783 771 773 764 761 765 774 779 783 793 792 794 800 807 813 818 819 825 829 835 836 839 838 839 842 842 843 845 846 847 848 849 850 850 851 851 852 852 853 853 853 853
760 761 750 755 762 765 781 780 770 776 770 764 769 774 779 787 787 790 796 803 809 813 819 824 827 830 836 836 834 834 840 841 842 845 846 846 847 848 850 851 849 850 851 851 851 851 852 853 854
751 763 756 756 762 769 773 794 793 782 781 779 771 775 780 787 793 791 796 802 808 813 818 823 825 831 838 839 835 833 838 841 842 843 845 847 848 849 849 850 849 850 850 850 850 849 849 851 852
739 744 773 760 764 768 774 804 801 785 789 785 776 782 788 787 791 793 797 800 805 811 814 819 822 828 835 839 836 837 839 840 840 842 845 848 848 848 847 849 853 853 853 852 849 848 847 848 850
740 766 781 788 772 769 778 795 791 788 790 791 789 787 797 792 789 797 796 800 803 810 814 819 823 827 831 835 836 837 839 840 840 842 845 849 850 850 852 854 857 856 856 854 852 849 849 850 849
785 773 765 798 763 766 781 784 784 788 792 792 788 791 800 803 788 792 797 798 803 809 813 818 823 827 830 833 835 837 838 839 841 844 848 850 852 857 856 855 855 853 851 857 856 854 851 853 854
755 760 774 772 756 766 772 775 780 784 794 792 791 784 791 792 785 788 800 798 803 809 814 820 822 826 828 832 834 836 837 838 842 847 849 848 851 856 855 855 854 854 859 859 859 857 853 852 853
746 757 760 758 750 759 761 773 770 775 782 783 789 791 790 792 790 788 792 795 801 806 812 821 823 826 828 831 833 835 837 839 844 849 848 845 851 857 860 858 858 864 866 862 862 860 853 849 852
741 753 764 773 757 750 758 768 776 772 777 779 782 785 791 794 798 791 791 794 799 807 811 817 822 825 829 831 832 834 836 838 842 847 850 849 851 857 862 859 863 867 868 862 863 858 851 848 852
754 738 750 760 763 775 749 787 768 771 779 780 783 785 786 788 799 798 792 791 795 803 808 815 820 825 828 831 832 834 835 836 839 844 846 847 847 851 856 862 863 863 864 868 863 858 850 850 854
745 739 747 755 765 751 747 763 755 763 782 780 777 781 779 780 792 794 792 788 791 798 805 812 818 823 827 829 831 833 834 836 838 840 841 843 844 843 849 856 861 864 861 864 860 857 852 856 856
724 742 747 756 759 775 743 744 772 780 772 764 765 770 774 771 773 786 792 790 787 794 800 808 815 820 825 829 830 831 833 835 837 839 841 841 842 842 843 848 854 858 859 862 860 850 849 852 852
736 752 776 780 773 777 753 754 771 751 755 744 750 761 766 763 763 780 785 784 785 789 797 803 811 818 821 825 828 829 832 831 836 837 840 841 841 841 839 841 845 849 850 851 849 850 854 855 855
742 749 766 798 806 817 771 785 762 736 730 728 736 747 755 755 757 768 775 775 780 787 791 797 806 813 818 822 825 826 830 834 836 836 838 840 841 840 840 841 842 845 848 848 850 854 856 855 855
742 755 732 757 757 788 785 772 767 738 723 717 735 747 748 749 751 763 769 771 771 782 785 792 800 807 813 818 822 825 826 829 834 836 838 840 841 841 843 844 844 845 847 850 852 853 854 855 856
735 726 758 745 780 792 803 807 801 784 785 728 731 751 746 741 749 752 762 771 769 775 781 788 795 802 808 814 817 822 824 826 831 833 835 835 839 839 841 842 844 844 845 845 847 849 850 852 852
742 749 758 758 775 777 798 825 805 801 776 740 719 733 732 738 744 749 756 765 773 774 776 782 790 798 804 809 813 816 821 825 828 831 830 833 836 839 841 842 842 846 845 844 845 847 848 848 849
743 754 765 782 823 808 786 825 802 788 778 730 726 728 734 734 738 745 754 760 767 773 770 777 784 792 798 803 808 812 816 821 825 826 829 831 834 838 839 843 845 845 843 844 845 845 846 847 847
Wind_Speed
9 10 14 11 3 3 11 4 15 12 16 13 23 18 19 14 7 12 21 26 27 22 18 17 18 17 17 17 17 16 15 16 15 16 15 15 15 16 15 16 17 16 15 15 17 16 17 15 15
8 16 14 1 3 8 3 16 14 8 13 16 30 13 23 23 25 22 24 29 27 25 18 17 19 20 20 20 18 17 17 16 15 16 16 15 16 15 15 15 15 16 18 18 18 18 18 16 16
7 7 4 4 6 1 14 11 12 19 10 10 13 10 16 20 21 28 39 36 31 26 22 19 20 21 20 20 19 18 17 16 16 15 16 16 16 16 15 15 16 16 17 17 17 18 17 16 17
7 2 5 2 9 6 14 19 15 12 8 16 19 15 20 25 27 35 34 28 33 22 21 20 20 21 21 20 19 17 16 16 16 16 16 17 17 16 16 16 16 15 16 16 18 17 16 15 16
5 4 1 5 12 12 15 15 19 20 7 22 15 20 19 24 24 34 37 36 36 25 21 18 20 22 20 20 18 18 17 16 17 16 16 16 16 16 16 16 15 15 16 17 17 16 14 15 16
3 3 4 5 18 9 15 20 15 16 10 22 16 20 16 22 21 24 33 27 28 30 22 18 19 21 20 19 19 18 17 16 16 16 16 16 16 17 17 16 15 16 16 16 15 14 13 14 13
6 6 3 15 7 16 11 20 15 2 19 19 18 19 15 19 17 21 29 24 24 29 24 18 18 18 19 20 20 18 18 16 16 15 17 16 15 15 16 16 15 15 13 13 13 14 13 13 13
7 5 2 5 9 5 7 8 9 11 13 23 14 15 13 19 18 18 28 23 18 19 27 25 20 16 16 17 17 17 17 16 15 14 15 18 16 15 15 15 14 13 12 13 12 12 13 14 17
6 4 5 5 3 6 15 7 11 18 4 12 11 18 20 22 19 16 20 19 26 18 26 22 26 21 17 17 16 17 16 17 17 13 17 17 18 14 12 12 13 12 11 11 11 11 11 14 15
6 2 7 12 9 4 12 13 14 11 7 22 20 25 24 21 19 16 19 19 13 23 18 15 16 21 17 16 17 17 17 15 11 7 8 8 15 15 11 11 11 11 10 10 9 8 7 8 6
11 5 19 16 11 14 7 11 3 7 4 16 25 19 17 18 14 15 12 28 21 20 27 26 21 20 21 17 17 14 15 12 13 11 11 14 13 13 11 13 11 9 6 4 0 2 2 6 12
7 4 11 10 10 12 9 7 15 12 7 14 18 18 15 15 13 7 17 28 25 19 17 19 23 15 12 12 17 14 17 16 13 11 11 9 13 13 12 8 9 7 4 3 3 5 2 2 3
8 11 9 15 10 4 18 1 10 9 3 12 18 17 16 7 23 24 20 21 23 23 23 18 20 21 13 12 12 13 15 16 14 14 6 11 10 7 13 7 9 8 5 8 5 9 8 6 7
7 15 10 17 7 7 14 8 6 12 14 15 16 16 11 16 12 13 23 19 16 23 22 19 21 19 15 4 15 15 8 14 14 12 9 10 4 7 8 9 6 2 10 4 8 4 7 9 7
21 12 12 11 8 10 10 7 5 10 13 12 15 12 13 2 9 11 22 21 18 18 22 21 20 15 13 11 19 6 10 11 17 15 12 3 6 3 3 7 10 6 2 6 9 5 4 13 12
7 2 6 9 13 8 11 6 3 15 5 11 6 13 9 12 20 18 19 18 18 20 21 23 18 17 15 17 12 10 12 10 19 11 7 5 5 4 10 5 6 5 8 10 11 7 9 13 12
11 9 4 4 16 9 10 6 15 13 9 7 3 14 14 5 15 3 25 18 16 16 19 15 23 18 16 16 10 9 10 10 11 13 12 7 7 7 6 8 3 7 9 8 13 6 7 10 14
1 10 3 7 12 13 11 9 16 17 11 10 7 13 9 16 12 22 15 18 23 21 17 13 17 19 20 15 9 8 10 6 9 9 12 7 5 3 8 5 2 7 10 3 4 2 4 9 10
14 9 10 10 7 10 9 7 13 20 13 13 10 6 7 11 15 17 17 21 23 22 20 13 11 18 18 14 13 12 12 8 9 14 12 6 6 6 3 6 1 10 2 7 2 2 2 7 3
8 6 4 11 10 7 8 10 18 22 21 19 13 6 2 6 2 17 20 21 24 27 25 19 17 16 17 15 15 16 15 13 12 13 9 6 6 8 2 3 5 13 21 22 2 6 5 7 2
9 9 6 4 5 10 6 9 17 19 18 19 13 11 12 10 8 1 13 25 29 25 25 21 17 19 16 16 16 14 12 15 9 7 13 11 12 8 4 2 6 6 7 8 10 1 9 6 5
14 9 5 7 4 9 12 2 18 19 17 18 18 18 18 14 3 7 19 17 30 29 30 25 22 21 18 19 18 15 12 13 14 16 15 15 12 10 7 4 1 5 9 6 13 10 14 5 16
7 3 8 9 17 14 16 9 11 19 18 17 19 20 21 18 24 19 19 22 22 35 31 28 26 23 17 16 14 14 12 16 17 16 15 14 12 8 7 6 5 5 7 3 9 8 6 3 4
7 9 11 9 15 11 15 10 9 11 13 19 22 23 22 21 16 22 14 27 20 25 32 29 29 24 17 18 14 18 17 8 4 13 12 11 13 11 8 9 7 5 7 7 6 4 6 9 9
8 12 9 11 12 4 16 5 6 8 19 19 22 21 23 23 19 22 23 29 26 27 25 31 29 25 21 20 18 18 13 7 5 17 14 14 20 20 18 14 8 6 5 5 3 2 4 6 6
14 13 13 1 4 5 21 6 7 11 15 19 21 23 23 22 11 9 21 20 16 30 28 31 30 25 23 22 20 16 15 13 11 8 7 10 10 9 20 17 12 8 5 4 5 8 8 11 7
14 11 18 9 14 5 4 4 6 12 7 12 22 21 21 20 14 24 24 28 34 25 30 29 31 28 27 24 21 19 16 14 14 10 9 14 10 10 12 10 13 11 8 10 8 9 10 12 7
15 10 9 10 15 8 4 4 3 16 20 6 22 20 20 16 12 12 15 14 27 29 24 30 32 29 28 25 26 21 19 18 11 10 13 16 7 6 15 7 7 11 10 9 11 11 13 13 10
4 9 7 10 8 9 3 3 7 18 30 14 9 24 19 17 19 17 10 15 10 25 34 29 33 29 26 25 27 26 24 21 19 16 14 21 11 8 5 7 15 11 13 12 12 14 14 8 11
4 2 3 6 5 6 5 4 12 23 23 6 10 11 6 6 9 10 12 6 8 17 31 28 30 30 28 27 26 27 24 24 22 22 18 15 16 16 12 11 15 16 14 14 12 14 15 10 13
Wind_Direction
253 249 248 259 219 210 96 135 75 66 66 62 48 61 82 149 150 101 129 118 118 119 124 124 125 124 124 116 115 119 111 105 105 103 98 98 99 100 99 98 99 102 105 110 110 109 108 107 105
255 283 256 23 245 119 227 88 85 80 76 82 39 22 79 87 98 132 134 121 121 121 122 123 126 124 123 122 125 118 111 108 102 100 98 99 99 99 99 99 99 101 99 104 104 105 106 108 110
239 298 351 9 320 272 116 130 133 85 1 97 135 134 102 108 109 111 102 101 105 106 121 127 125 123 122 125 124 114 110 108 105 103 102 99 99 99 96 92 93 95 100 101 102 103 102 102 112
257 222 162 280 238 167 123 126 128 101 96 74 111 88 87 107 111 113 114 136 119 119 123 130 127 126 124 121 119 118 113 109 108 106 100 102 99 97 96 94 93 93 99 95 101 100 101 106 116
165 262 94 210 218 121 117 112 115 103 243 109 98 99 96 106 120 122 129 126 131 126 123 132 129 127 125 124 122 118 116 113 106 106 105 102 104 102 97 93 91 96 101 95 96 99 102 105 120
208 50 346 306 116 190 96 89 46 133 145 125 117 103 104 121 129 131 126 122 129 125 124 127 126 125 124 124 122 119 118 114 116 112 111 106 103 103 95 97 90 95 95 95 100 104 104 105 118
126 179 81 288 91 84 80 104 150 100 26 117 121 117 129 131 145 127 117 140 132 126 122 123 126 124 128 127 126 126 121 119 120 118 113 111 114 110 107 103 97 97 99 99 98 97 105 107 114
161 65 70 318 70 354 55 67 48 49 173 100 137 132 136 135 149 123 126 144 112 130 128 134 133 131 128 129 130 129 126 124 123 123 120 116 117 117 111 106 104 104 103 101 105 112 105 106 113
72 36 108 223 235 313 351 87 118 182 134 118 150 154 144 148 144 140 116 127 123 121 114 118 137 133 135 133 131 128 127 120 117 121 128 117 112 117 114 125 113 112 110 110 116 113 115 125 127
109 125 246 192 166 174 31 20 353 115 113 77 97 134 135 150 145 146 146 124 132 112 103 216 135 130 146 137 134 135 126 131 131 121 125 120 127 134 134 131 123 124 120 121 124 126 128 140 164
146 160 224 155 141 123 242 189 158 126 103 120 138 128 143 157 128 151 222 140 141 131 133 159 158 149 151 147 139 144 138 129 136 139 113 137 141 147 142 141 137 136 130 151 294 211 300 269 219
76 80 124 141 163 181 180 0 84 65 5 291 126 135 152 162 161 160 188 126 133 121 124 131 124 126 134 156 150 156 151 146 139 135 141 155 168 169 166 163 176 181 160 135 266 138 131 92 339
155 106 116 140 158 90 85 194 84 79 100 137 125 147 170 129 134 224 115 120 126 138 149 133 157 179 167 161 164 170 179 139 134 141 164 112 130 109 131 127 186 209 181 150 132 140 122 120 105
78 305 128 135 141 154 109 58 82 31 358 133 143 164 139 169 142 148 115 127 143 139 129 137 144 166 174 118 154 173 128 138 137 143 139 121 124 144 142 181 178 112 95 109 99 151 202 151 121
147 206 122 130 142 136 126 40 33 322 351 317 145 156 140 151 113 150 129 140 148 141 134 167 153 166 129 152 144 150 149 157 147 147 150 134 140 146 225 186 228 132 191 152 143 153 165 139 138
210 232 140 139 156 151 196 149 186 272 333 313 115 106 114 203 167 143 153 155 158 161 150 175 159 156 156 162 174 198 169 153 135 140 162 135 170 193 178 141 163 190 179 191 198 209 205 144 159
203 224 163 71 276 147 204 134 208 224 243 273 270 134 177 353 127 236 145 163 159 158 152 120 155 153 156 152 176 182 166 153 152 162 170 167 201 207 259 286 213 217 295 232 218 203 161 165 165
63 302 37 117 198 169 191 232 172 197 218 234 236 151 193 197 195 144 211 156 156 140 143 147 154 167 152 158 179 161 166 179 165 180 162 153 254 269 276 68 93 303 299 301 251 108 137 212 202
183 196 168 172 185 184 213 183 171 190 200 225 234 205 179 263 165 155 157 158 139 140 146 153 141 148 155 170 179 154 183 205 183 126 132 172 215 272 166 321 311 33 97 326 30 34 168 319 331
200 267 186 174 142 240 167 188 181 183 198 212 210 203 196 278 211 172 153 166 152 147 150 167 166 165 175 184 188 181 186 191 194 143 145 149 199 260 219 8 36 108 255 277 254 287 284 289 243
186 221 154 183 250 245 249 205 180 187 198 206 198 204 220 248 192 253 205 170 153 157 155 159 169 176 187 199 197 193 196 186 140 163 162 191 210 226 242 1 64 114 218 318 274 74 38 0 356
268 63 120 167 258 263 190 252 186 183 192 207 204 209 223 187 164 216 241 185 163 161 162 160 168 181 190 197 198 188 195 177 195 196 196 185 202 223 217 168 146 113 304 239 336 69 73 236 291
243 354 261 320 306 262 216 240 188 163 183 200 212 207 224 218 176 208 228 205 173 158 163 164 171 180 194 184 184 188 199 201 198 212 187 190 192 216 227 195 192 159 216 201 278 332 84 291 330
234 188 201 189 244 260 270 279 137 160 190 202 202 211 221 222 193 176 214 251 151 161 162 164 172 179 193 187 196 193 217 208 241 172 165 182 192 215 229 219 195 196 215 208 247 351 1 328 356
247 257 249 227 226 261 344 319 132 194 199 195 199 197 208 220 218 164 184 221 168 162 169 157 161 174 193 195 198 212 212 248 272 164 190 199 197 209 206 203 209 222 237 225 281 306 275 296 309
220 240 256 321 25 310 298 4 147 209 222 202 178 186 201 208 194 252 200 173 171 174 167 161 165 172 186 199 198 208 212 207 213 216 193 240 264 332 208 194 205 215 223 237 237 251 248 251 267
254 209 259 283 233 208 290 57 313 327 196 179 169 186 205 214 201 191 187 173 184 169 179 165 165 173 180 197 198 206 218 223 196 220 242 257 244 146 161 195 193 212 212 223 226 240 249 263 245
256 293 295 238 246 231 207 7 190 332 304 148 166 175 216 191 190 233 147 181 177 171 165 163 166 176 183 195 192 201 209 215 224 225 228 218 289 209 205 229 234 221 232 240 236 248 257 250 240
251 241 350 342 10 314 106 6 313 282 275 276 116 176 177 188 189 200 170 141 211 196 182 162 165 175 184 197 191 198 196 203 214 216 238 229 245 245 209 242 230 244 236 233 235 240 257 273 246
251 223 260 329 82 285 311 151 215 259 286 355 56 83 174 159 199 170 179 133 256 234 170 172 170 174 184 193 199 201 201 204 203 208 213 222 233 233 229 214 224 232 232 235 237 243 248 261 256